This demonstration page uses our WeatherBlox Daily Observations layout. Learn more.

Left ArrowRight Arrow

40.97296, -117.73568

Hourly Observations for March 27, 2016

Temp ( °F °C ) Dew Point ( °F °C ) Humidity (%) Winds ( mph kmh ) Pressure ( in mb ) Visibility ( mi km ) Precip ( " mm )
12:56 am 00:56 Clear 32 0 15 -9.4 50 50 SE 6 9 30.01 1016 10 16 0.00 0.00
1:56 am 01:56 Clear 29 -1.7 16 -8.9 58 58 SSE 5 7 30.00 1016 10 16 0.00 0.00
2:56 am 02:56 Mostly Clear 31 -0.6 17 -8.3 56 56 S 7 11 30.00 1016 10 16 0.00 0.00
3:56 am 03:56 Cloudy 35 1.7 17 -8.3 48 48 E 3 6 29.98 1015 10 16 0.00 0.00
4:56 am 04:56 Mostly Cloudy 37 2.8 18 -7.8 46 46 SW 3 6 29.96 1015 10 16 0.00 0.00
5:56 am 05:56 Mostly Cloudy 42 5.6 15 -9.4 33 33 S 9 15 29.95 1014 10 16 0.00 0.00
6:56 am 06:56 Cloudy 40 4.4 18 -7.8 41 41 Calm 29.97 1015 10 16 0.00 0.00
7:56 am 07:56 Cloudy 41 5 19 -7.2 41 41 SW 3 6 29.99 1016 10 16 0.00 0.00
8:56 am 08:56 Cloudy 48 8.9 19 -7.2 32 32 S 7 11 29.99 1016 10 16 0.00 0.00
9:56 am 09:56 Partly Cloudy 55 12.8 30 -1.1 38 38 SW 20 31 29.99 1016 10 16 0.00 0.00
10:56 am 10:56 Sunny 57 13.9 30 -1.1 36 36 SW 21 33 29.98 1015 10 16 0.00 0.00
11:56 am 11:56 Mostly Sunny 59 15 30 -1.1 33 33 SW 17 28 29.96 1015 10 16 0.00 0.00
12:56 pm 12:56 Cloudy 59 15 31 -0.6 35 35 WNW 14 22 29.93 1014 10 16 0.00 0.00
1:03 pm 13:03 Cloudy 59 15 30 -1 34 34 W 17 28 29.83 1010 10 16 0.00 0.00
1:56 pm 13:56 Mostly Cloudy 59 15 31 -0.6 35 35 W 14 22 29.92 1013 10 16 0.00 0.00
2:56 pm 14:56 Partly Cloudy 59 15 27 -2.8 29 29 WSW 16 26 29.87 1012 10 16 0.00 0.00
3:56 pm 15:56 Cloudy 57 13.9 24 -4.4 28 28 W 17 28 29.84 1011 10 16 0.00 0.00
4:56 pm 16:56 Cloudy 52 11.1 29 -1.7 41 41 NNW 25 41 29.84 1011 10 16 0.00 0.00
5:03 pm 17:03 Cloudy 52 11 30 -1 44 44 NNW 22 35 29.80 1009 10 16 0.00 0.00
5:56 pm 17:56 Cloudy 50 10 26 -3.3 39 39 N 17 28 29.87 1011 10 16 0.00 0.00
6:56 pm 18:56 Cloudy 49 9.4 20 -6.7 32 32 N 10 17 29.88 1012 10 16 0.00 0.00
7:56 pm 19:56 Cloudy 46 7.8 21 -6.1 37 37 N 14 22 29.92 1013 10 16 0.00 0.00
8:56 pm 20:56 Cloudy 42 5.6 26 -3.3 53 53 N 15 24 29.93 1014 10 16 0.00 0.00
9:56 pm 21:56 Cloudy 39 3.9 29 -1.7 67 67 NNE 6 9 29.93 1014 10 16 0.00 0.00
10:56 pm 22:56 Cloudy 37 2.8 30 -1.1 76 76 SE 10 17 29.90 1013 10 16 0.00 0.00
11:56 pm 23:56 Cloudy 36 2.2 30 -1.1 79 79 S 7 11 29.89 1012 10 16 0.00 0.00

Powered by AerisWeather